Regional Weather Roundup
Issued by NWS

Home | Current Version | Previous Version | Text Only | Print | Product List | Glossary On
Versions: 1 2 3 4 5 6 7 8 9 10 11 12 13 14 15 16 17 18 19 20 21 22 23 24 25 26 27 28 29 30 31 32 33 34 35 36 37 38 39 40 41 42 43 44 45 46 47 48 49 50
000
ASUS46 KLOX 011012
RWRCA

SOUTHERN CALIFORNIA WEATHER ROUNDUP
NATIONAL WEATHER SERVICE OXNARD CALIFORNIA
300 AM PDT FRI AUG 01 2014

NOTE: "FAIR" INDICATES FEW OR NO CLOUDS BELOW 12,000 FEET WITH NO
SIGNIFICANT WEATHER AND/OR OBSTRUCTIONS TO VISIBILITY.

  -  STATIONS PRECEEDED BY AN ASTERISK (*) ARE NOT NWS OR FAA
     STATIONS AND ARE NOT SUBJECT TO NWS AND FAA QUALITY CONTROL.

CAZ041-042-087-011100-
LA AND ORANGE COUNTY COASTAL AREAS


CITY           SKY/WX    TMP DP  RH WIND       PRES   REMARKS
L.A. DOWNTOWN  CLEAR     67  62  84 CALM      29.90F
L.A. AIRPORT   PTCLDY    67  63  87 W5        29.91F
LONG BEACH     CLEAR     68  64  87 SE3       29.90F

CITY           SKY/WX    TMP DP  RH WIND       PRES   REMARKS
AVALON           N/A     68 N/A N/A CALM        N/A
FULLERTON      CLEAR     69  63  81 S6        29.90S
*GETTY CENTER    N/A     64  59  82 W2          N/A
HAWTHORNE      CLEAR     68  63  84 CALM      29.91S
*LOS ALAMITOS  CLOUDY    67  64  92 S5        29.91S
*REDONDO BEACH   N/A     65  61  88 CALM      29.90S
SANTA ANA      CLOUDY    72  63  73 SE6       29.90F
STA MONICA APT MOCLDY    66  63  88 CALM      29.91F
*UCLA            N/A     64  59  82 CALM      29.89R

$$

CAZ547-548-048-011100-
LA COUNTY VALLEYS AND INLAND EMPIRE


CITY           SKY/WX    TMP DP  RH WIND       PRES   REMARKS
BURBANK        CLEAR     69  59  70 CALM      29.91F
VAN NUYS       CLEAR     69  58  67 CALM      29.91F

CITY           SKY/WX    TMP DP  RH WIND       PRES   REMARKS
CORONA AIRPORT SUNNY     67  63  87 W6        29.92S
*CHATSWORTH      N/A     71  60  70 CALM      29.85S
CHINO          CLEAR     66  62  87 CALM      29.92F
*CLAREMONT       N/A     68  55  62 CALM        N/A
MARCH AFB      CLEAR     68  59  71 CALM      29.94S
*NORTHRIDGE      N/A     68  57  68 CALM        N/A
ONTARIO        CLEAR     71  58  63 SW5       29.91F
*PASADENA        N/A     70  63  78 CALM        N/A
RIVERSIDE      CLEAR     71  60  68 CALM      29.92S
SAN BERNARDINO NOT AVBL
*WHITEMAN AP   NOT AVBL
*WOODLAND HILL   N/A     66  59  77 S1          N/A

$$

CAZ054-055-011100-
LA AND SAN BERNARDINO COUNTY MOUNTAINS


CITY           SKY/WX    TMP DP  RH WIND       PRES   REMARKS
*ACTON           N/A     72  46  39 N2          N/A
*BIG BEAR AIRP SUNNY     52  41  66 CALM      30.31S
*BIG PINES       N/A     67  36  31 CALM        N/A
MT WILSON NWS    N/A     72  37  28 MISG        N/A
SANDBERG       CLEAR     78  44  29 N24G30    30.12F
*WARM SPRINGS    N/A     76  44  31 W8          N/A

$$

CAZ028-029-059-060-099-011100-
ANTELOPE VALLEY AND SURROUNDING AREAS


CITY           SKY/WX    TMP DP  RH WIND       PRES   REMARKS
LANCASTER      CLEAR     81  43  26 W13       29.95F
PALMDALE       CLEAR     80  46  30 S9        29.97S

CITY           SKY/WX    TMP DP  RH WIND       PRES   REMARKS
29 PALMS       CLEAR     85  41  21 N5        29.97S
BARSTOW/DAGGET CLEAR     89  45  21 W14       29.89S
BISHOP         CLEAR     65  43  44 VRB3      30.09S
CHINA LAKE     CLEAR     79  45  29 W5        29.90S
EDWARDS AFB    CLEAR     77  46  33 S10       29.92S
MOJAVE         FAIR      84  46  26 W17G25    29.96S
NEEDLES        PTCLDY    96  56  26 SW7       29.82S HX  94
VICTORVILLE    CLEAR     75  48  38 S7        29.99S

$$

CAZ039-040-011100-
VENTURA AND SANTA BARBARA COUNTY COAST


CITY           SKY/WX    TMP DP  RH WIND       PRES   REMARKS
CAMARILLO      CLOUDY    65  60  84 CALM      29.90S
NWS OXNARD       N/A     63  59  87 SW2       29.90F
OXNARD AIRPORT CLOUDY    63  60  90 W3        29.91S
*POINT MUGU    CLOUDY    65  60  84 CALM      29.91S
SBA APT/GOLETA CLOUDY    65  60  84 E12       29.89R
*SANTA BARBARA   N/A     65  59  83 CALM      29.97S
*VENTURA         N/A     65  60  86 CALM      29.93S

$$

CAZ044-045-011100-
VENTURA COUNTY VALLEYS


CITY           SKY/WX    TMP DP  RH WIND       PRES   REMARKS
*SIMI VALLEY     N/A     64  60  85 CALM      29.84S
*OJAI            N/A     62  58  85 CALM      29.83S
*FILLMORE        N/A     62  58  86 W5        29.80S

$$

CAZ053-011100-
VENTURA COUNTY MOUNTAINS


CITY           SKY/WX    TMP DP  RH WIND       PRES   REMARKS
*LOCKWOOD VLY    N/A     59  41  51 MISG        N/A
*ROSE VALLEY     N/A     59 -99   0 MISG        N/A

$$

CAZ034-035-036-011100-
CENTRAL COAST AND SANTA YNEZ VALLEY


CITY           SKY/WX    TMP DP  RH WIND       PRES   REMARKS
SAN LUIS OBISP CLOUDY    60  59  96 W3        29.91F
SANTA MARIA    FOG       61  57  88 NW5       29.92S VSB 1

CITY           SKY/WX    TMP DP  RH WIND       PRES   REMARKS
*CAL POLY SLO    N/A     61  59  94 S3          N/A
*LOMPOC        CLOUDY    61  55  82 MISG      29.93S
*PISMO BEACH     N/A     62  60  93 CALM      29.92S

$$

CAZ037-038-051-011100-
SAN LUIS OBISPO COUNTY INTERIOR AND CUYAMA VALLEY


CITY           SKY/WX    TMP DP  RH WIND       PRES   REMARKS
*CUYAMA          N/A     70  49  46 E1        29.82S
PASO ROBLES    CLEAR     66  52  60 NE3       29.91S

$$

CAZ032-033-061-011100-
SOUTHERN DESERTS


CITY           SKY/WX    TMP DP  RH WIND       PRES   REMARKS
BLYTHE           N/A    N/A N/A N/A MISG      29.79F
IMPERIAL       CLEAR     88  76  67 SE10      29.75R HX  99
PALM SPRINGS   CLEAR     92  57  30 NW8       29.81R HX  90
THERMAL        CLEAR     84  70  62 CALM      29.74S

$$

ELSEWHERE ACROSS THE WESTERN UNITED STATES AND MEXICO


CITY           SKY/WX    TMP DP  RH WIND       PRES   REMARKS
DENVER, CO     PTCLDY    59  53  80 SW6       30.26F
GRAND CANYON,  CLOUDY    58  53  84 CALM      30.32S
HONOLULU, HI   PTCLDY    79  66  65 VRB6G18   30.00F
KAHULUI, MAUI  PTCLDY    79  68  69 NE18G24   30.00S
LAKE TAHOE, CA PTCLDY    55  45  68 S3        30.28F
LAS VEGAS, NV  MOCLDY    90  51  26 NE6       29.88R
MAMMOTH LAKES, FAIR      55  43  62 W8        30.34F
MEXICO CITY, M PTCLDY    61  50  67 SW6       30.34S
PHOENIX, AZ    LGT RAIN  83  66  56 S13       29.91F
PORTLAND, OR   CLOUDY    71  53  52 NW6       30.03R
RENO, NV       MOCLDY    72  49  44 W5        30.15F
SALT LAKE CITY PTCLDY    67  53  61 S5        30.12S
SAN DIEGO, CA  MOCLDY    70  63  78 CALM      29.93S
SAN FRANCISCO, MOCLDY    61  57  87 W9        29.90S
SAN JOSE, CA   PTCLDY    62  60  93 NW3       29.90S
SEATTLE, WA    CLOUDY    65  49  56 N5        30.05S
TIJUANA, MEX   CLOUDY    68  61  77 N3        29.94F

$$

STATION/POSITION TIME  TEMP    WIND        PRES    VSBY  WAVE
                       AIR SEA DIR/SP/G                  HT/PER
                 (UTC) (F)     (DEG/KT/KT) (MB)    (MI)  (FT/S)
POINT ARGUELLO B NOT AVBL
WEST SANTA BARBA 1000   60 60  320/ 16/ 19 1011.9R         6/ 6
POINT CONCEPTION NOT AVBL
EAST SANTA BARBA 0900   63      10/  4       N/A
SANTA MONICA BAY 1000   65 68   20/  4/  6 1012.2F         4/ 7


USA.gov is the U.S. government's official web portal to all federal, state and local government web resources and services.